This demonstration page uses our WeatherBlox Daily Observations layout. Learn more.

Left ArrowRight Arrow

Hourly Observations for August 17, 2022

Temp ( °F °C ) Dew Point ( °F °C ) Humidity (%) Winds ( mph kmh ) Pressure ( in mb ) Visibility ( mi km ) Precip ( " mm )
1:52 am 01:52 Clear 64 17.8 62 16.7 93 93 NW 6 9 30.11 1020 10 16 0.00 0.00
2:52 am 02:52 Clear 64 17.8 62 16.7 93 93 Calm 30.11 1020 10 16 0.00 0.00
3:52 am 03:52 Clear 61 16.1 61 16.1 100 100 NW 5 7 30.12 1020 10 16 0.00 0.00
4:52 am 04:52 Clear 60 15.6 60 15.6 100 100 N 5 7 30.13 1020 10 16 0.00 0.00
5:52 am 05:52 Clear 61 16.1 60 15.6 97 97 N 7 11 30.14 1021 10 16 0.00 0.00
6:52 am 06:52 Partly Cloudy with Patchy Fog 61 16.1 60 15.6 97 97 N 8 13 30.15 1021 9 14 0.00 0.00
7:52 am 07:52 Sunny 63 17.2 61 16.1 93 93 N 5 7 30.17 1022 10 16 0.00 0.00
8:52 am 08:52 Mostly Sunny 68 20 62 16.7 81 81 Calm 30.17 1022 10 16 0.00 0.00
9:52 am 09:52 Mostly Sunny 72 22.2 63 17.2 73 73 Calm 30.16 1022 10 16 0.00 0.00
10:52 am 10:52 Sunny 85 29.4 61 16.1 45 45 Calm 30.16 1021 10 16 0.00 0.00
11:52 am 11:52 Partly Cloudy 78 25.6 61 16.1 56 56 VRB 3 6 30.16 1021 10 16 0.00 0.00
12:52 pm 12:52 Partly Cloudy 78 25.6 60 15.6 54 54 NNE 5 7 30.15 1021 10 16 0.00 0.00
1:52 pm 13:52 Partly Cloudy 79 26.1 60 15.6 52 52 ENE 5 7 30.13 1020 10 16 0.00 0.00
2:52 pm 14:52 Partly Cloudy 82 27.8 60 15.6 47 47 VRB 3 6 30.12 1020 10 16 0.00 0.00
3:52 pm 15:52 Partly Cloudy 82 27.8 59 15 46 46 Calm 30.11 1020 10 16 0.00 0.00
4:52 pm 16:52 Partly Cloudy 81 27.2 58 14.4 45 45 SE 3 6 30.10 1019 10 16 0.00 0.00
5:52 pm 17:52 Mostly Sunny 83 28.3 58 14.4 43 43 NE 5 7 30.09 1019 10 16 0.00 0.00
6:52 pm 18:52 Mostly Sunny 81 27.2 59 15 47 47 E 5 7 30.08 1019 10 16 0.00 0.00
7:52 pm 19:52 Mostly Sunny 79 26.1 60 15.6 52 52 E 3 6 30.07 1018 10 16 0.00 0.00
8:52 pm 20:52 Clear 73 22.8 62 16.7 68 68 E 6 9 30.07 1018 10 16 0.00 0.00
9:52 pm 21:52 Clear 70 21.1 62 16.7 76 76 E 5 7 30.09 1019 10 16 0.00 0.00
10:52 pm 22:52 Clear 66 18.9 64 17.8 93 93 NNW 3 6 30.08 1019 10 16 0.00 0.00
11:52 pm 23:52 Clear 67 19.4 63 17.2 87 87 Calm 30.07 1018 10 16 0.00 0.00

Powered by AerisWeather